TimeEDT,TemperatureF,Dew PointF,Humidity,Sea Level PressureIn,VisibilityMPH,Wind Direction,Wind SpeedMPH,Gust SpeedMPH,PrecipitationIn,Events,Conditions,WindDirDegrees,DateUTC
4:51 AM,46.9,43.0,86,29.82,10.0,NNE,4.6,-,N/A,,Overcast,20,2011-11-04 08:51:00
5:51 AM,48.0,42.1,80,29.83,10.0,NNE,3.5,-,N/A,,Overcast,30,2011-11-04 09:51:00
6:51 AM,48.0,41.0,77,29.85,10.0,North,5.8,-,N/A,,Overcast,10,2011-11-04 10:51:00
7:51 AM,46.9,37.9,71,29.90,10.0,North,8.1,-,N/A,,Partly Cloudy,10,2011-11-04 11:51:00
8:51 AM,46.9,37.0,68,29.94,10.0,North,8.1,-,N/A,,Overcast,10,2011-11-04 12:51:00
9:51 AM,46.9,37.9,71,29.97,10.0,North,10.4,18.4,N/A,,Clear,10,2011-11-04 13:51:00
10:51 AM,48.0,37.9,68,30.00,10.0,North,11.5,17.3,N/A,,Clear,10,2011-11-04 14:51:00
11:51 AM,51.1,39.9,66,30.01,10.0,North,12.7,-,N/A,,Clear,350,2011-11-04 15:51:00
12:37 PM,50.0,39.2,66,30.03,10.0,North,11.5,-,N/A,,Mostly Cloudy,350,2011-11-04 16:37:00
12:51 PM,51.1,39.0,63,30.02,10.0,NNE,6.9,-,N/A,,Mostly Cloudy,30,2011-11-04 16:51:00
1:51 PM,50.0,39.0,66,30.02,10.0,NNW,11.5,21.9,N/A,,Overcast,340,2011-11-04 17:51:00
2:51 PM,50.0,39.0,66,30.03,10.0,North,18.4,21.9,N/A,,Overcast,350,2011-11-04 18:51:00
3:27 PM,51.8,39.2,62,30.03,10.0,North,11.5,18.4,N/A,,Scattered Clouds,360,2011-11-04 19:27:00
3:51 PM,52.0,39.0,61,30.03,10.0,North,10.4,18.4,N/A,,Partly Cloudy,10,2011-11-04 19:51:00
4:17 PM,51.8,39.2,62,30.05,10.0,North,11.5,-,N/A,,Mostly Cloudy,360,2011-11-04 20:17:00
4:51 PM,51.1,39.0,63,30.06,10.0,North,12.7,-,N/A,,Mostly Cloudy,360,2011-11-04 20:51:00
5:42 PM,50.0,37.4,62,30.08,10.0,North,9.2,-,N/A,,Mostly Cloudy,10,2011-11-04 21:42:00
5:51 PM,50.0,37.0,61,30.09,10.0,North,8.1,-,N/A,,Mostly Cloudy,10,2011-11-04 21:51:00
6:51 PM,46.9,37.9,71,30.12,10.0,NW,6.9,-,N/A,,Scattered Clouds,320,2011-11-04 22:51:00
7:51 PM,46.0,37.0,71,30.15,10.0,WNW,4.6,-,N/A,,Clear,300,2011-11-04 23:51:00
8:51 PM,44.1,36.0,73,30.17,10.0,NNW,3.5,-,N/A,,Clear,330,2011-11-05 00:51:00
9:51 PM,44.1,33.1,65,30.19,10.0,North,5.8,-,N/A,,Clear,10,2011-11-05 01:51:00
10:51 PM,44.1,28.9,55,30.19,10.0,NNE,4.6,-,N/A,,Clear,20,2011-11-05 02:51:00
11:51 PM,42.1,28.0,58,30.20,10.0,North,4.6,-,N/A,,Clear,10,2011-11-05 03:51:00